This is the latest recevied weather packets stored in our database for station/object DO7CRZ-11. If no packets are shown the sender has not sent any weather packets the latest 10 day(s).
| Time | Temp. | Humidity | Pressure | Rain* | Wind** | Luminosity | Snow |
|---|---|---|---|---|---|---|---|
| 1777798928 | 24.44° C | 32% | 1016.5 hPa | 0 mm | - | 617 W/m² | - |
| 1777798332 | 23.89° C | 32% | 1016.4 hPa | 0 mm | - | 605 W/m² | - |
| 1777797740 | 23.33° C | 32% | 1016.6 hPa | 0 mm | - | 590 W/m² | - |
| 1777797128 | 23.33° C | 32% | 1016.5 hPa | 0 mm | - | 579 W/m² | - |
| 1777796532 | 23.33° C | 32% | 1016.5 hPa | 0 mm | - | 550 W/m² | - |
| 1777795935 | 22.78° C | 33% | 1016.5 hPa | 0 mm | - | 514 W/m² | - |
| 1777794736 | 22.22° C | 33% | 1016.6 hPa | 0 mm | - | 493 W/m² | - |
| 1777794137 | 21.67° C | 35% | 1016.6 hPa | 0 mm | - | 476 W/m² | - |
| 1777792930 | 21.11° C | 36% | 1016.4 hPa | 0 mm | - | 329 W/m² | - |
| 1777792332 | 20.56° C | 37% | 1016.4 hPa | 0 mm | - | 317 W/m² | - |
| 1777791129 | 20° C | 37% | 1016.5 hPa | 0 mm | - | 251 W/m² | - |
| 1777790532 | 20° C | 38% | 1016.6 hPa | 0 mm | - | 246 W/m² | - |
| 1777789934 | 20° C | 38% | 1016.6 hPa | 0 mm | - | 269 W/m² | - |
| 1777789328 | 19.44° C | 38% | 1016.5 hPa | 0 mm | - | 256 W/m² | - |
| 1777788731 | 18.89° C | 40% | 1016.6 hPa | 0 mm | - | 231 W/m² | - |
| 1777788133 | 18.33° C | 41% | 1016.4 hPa | 0 mm | - | 211 W/m² | - |
| 1777787527 | 17.78° C | 42% | 1016.3 hPa | 0 mm | - | 171 W/m² | - |
| 1777786930 | 17.22° C | 43% | 1016.5 hPa | 0 mm | - | 146 W/m² | - |
| 1777786333 | 16.67° C | 44% | 1016.4 hPa | 0 mm | - | 125 W/m² | - |
| 1777785735 | 16.67° C | 44% | 1016.4 hPa | 0 mm | - | 77 W/m² | - |
| 1777785128 | 16.11° C | 46% | 1016.4 hPa | 0 mm | - | 56 W/m² | - |
| 1777784531 | 15.56° C | 46% | 1016.4 hPa | 0 mm | - | 54 W/m² | - |
| 1777783934 | 15° C | 47% | 1016.4 hPa | 0 mm | - | 61 W/m² | - |
| 1777783327 | 15° C | 47% | 1016.4 hPa | 0 mm | - | 51 W/m² | - |
| 1777782729 | 14.44° C | 48% | 1016.5 hPa | 0 mm | - | 39 W/m² | - |
* Rain latest hour (hover to see other rain measurements)
** Current wind speed in m/s (hover to see current wind gust speed)